Location: *
(49.4547°N, 7.9131°E)
Time: 14:22:42
(UTC+00:00)

SL-8 R/B - Pass Details

Date: 22 September 2019
Orbit: 657 x 667 km, 48.4° (Epoch: 15 October)

Event Time Altitude Azimuth Distance (km) Brightness Sun altitude
Rises 19:21:43 0° 275° (W) 2,987 8.4 -18.9°
Reaches altitude 10° 19:24:04 10° 274° (W) 2,075 7.3 -19.3°
Maximum altitude 19:28:50 74° 190° (S) 690 3.6 -20.0°
Enters shadow 19:30:06 48° 119° (ESE) 864 3.8 -20.1°
